Retour au catalogue

KUIPER-00114

ActifCommunicationsLEO
NORAD 65151·PAYLOAD·🇺🇸 United States

Lancé Aug 11, 2025 depuis Cape Canaveral Space Force Station

Loading…

Prochains Passages (prochaines 24 heures)

TLE

FraisSource: CelesTrak SupGP

Époque: Sep 14, 2026, 22:20 UTC

1 65151C 25171V   26257.93118056  .00006515  00000+0  85274-3 0  2571
2 65151  51.8991  58.7646 0000632 120.1771 168.0335 14.79930905    13

Suivez KUIPER-00114 en temps réel avec AllMySat

Download on the App Store